Home   Weather   Prudhoe Bay   Past weeks

Flag for USA Past Weather in Prudhoe Bay, Alaska, USA — Yesterday and Last 2 Weeks

Now
-6 °F

Sunny.


Feels Like: -23 °F
Forecast: -8 / -5 °F
Wind: 9 mph from Southwest

Location: Deadhorse Airport

Current Time: Dec 10, 2016 at 1:39:22 pm

Latest Report: Dec 10, 2016 at 12:53 pm


Visibility: 10 mi

Pressure: 30.62 "Hg

Humidity: 71%

Dew Point: -13 °F

Location of Prudhoe BayLocation

Past Weather in Prudhoe Bay — Graph

°F

Prudhoe Bay Temperature Yesterday

Maximum temperature yesterday: -4 °F (at 9:53 pm)
Minimum temperature yesterday: -22 °F (at 12:53 am)
Average temperature yesterday: -16 °F

High & Low Weather Summary for the Past Weeks

 TemperatureHumidityPressure
High5 °F (Nov 25, 11:53 am)86% (Dec 2, 11:00 am)30.92 "Hg (Dec 2, 11:00 am)
Low-29 °F (Dec 4, 6:53 pm)65% (Dec 1, 4:53 am)29.60 "Hg (Nov 27, 12:53 am)
Average-12 °F75%30.28 "Hg
* Reported Nov 25 11:53 am — Dec 10 11:53 am, Prudhoe Bay, Weather by CustomWeather, © 2016

Note: Actual official high and low records may vary slightly from our data, if they occured in-between our weather recording intervals... More about our weather records

Advertising

Prudhoe Bay Weather History for the Previous 24 Hours

Scroll right to see more
 ConditionsComfort  
Time TempWeatherWind HumidityBarometerVisibility
11:53 am
Sat, Dec 10
-6 °FSunny.10 mph71%30.61 "Hg10 mi
10:53 am-6 °FSunny.10 mph71%30.61 "Hg10 mi
9:53 am-7 °FPassing clouds.12 mph75%30.60 "Hg10 mi
8:53 am-8 °FSunny.10 mph74%30.61 "Hg10 mi
7:53 am-7 °FSunny.10 mph71%30.62 "Hg10 mi
6:53 am-8 °FSunny.12 mph74%30.63 "Hg10 mi
5:53 am-8 °FClear.10 mph74%30.64 "Hg10 mi
4:53 am-6 °FPassing clouds.6 mph75%30.64 "Hg10 mi
3:53 am-5 °FClear.8 mph72%30.64 "Hg10 mi
2:53 am-6 °FClear.10 mph71%30.63 "Hg10 mi
1:53 am-4 °FClear.10 mph71%30.64 "Hg10 mi
12:53 am-2 °FOvercast.14 mph72%30.63 "Hg10 mi
11:53 pm
Fri, Dec 9
-5 °FMostly cloudy.14 mph75%30.63 "Hg10 mi
10:53 pm-6 °FPassing clouds.13 mph75%30.64 "Hg10 mi
9:53 pm-4 °FMostly cloudy.13 mph71%30.63 "Hg10 mi
8:53 pm-7 °FOvercast.12 mph71%30.63 "Hg10 mi
7:53 pm-12 °FClear.10 mph74%30.63 "Hg10 mi
6:53 pm-14 °FSunny.9 mph71%30.63 "Hg10 mi
5:53 pm-15 °FSunny.9 mph74%30.64 "Hg10 mi
4:53 pm-15 °FSunny.9 mph70%30.65 "Hg10 mi
3:53 pm-15 °FPassing clouds.10 mph70%30.64 "Hg10 mi
2:53 pm-17 °FSunny.10 mph70%30.64 "Hg10 mi
1:53 pm-18 °FPassing clouds.10 mph69%30.64 "Hg10 mi
Weather by CustomWeather, © 2016

See weather overviewHow to use our weather pages